Regional Weather Roundup
Issued by NWS

Home | Current Version | Previous Version | Graphics & Text | Print | Product List | Glossary On
Versions: 1 2 3 4 5 6 7 8 9 10 11 12 13 14 15 16 17 18 19 20 21 22 23 24 25 26 27 28 29 30 31 32 33 34 35 36 37 38 39 40 41 42 43 44 45 46 47 48 49 50
000
ASUS43 KTOP 261959
RWRKS

WEATHER ROUNDUP FOR KANSAS
NATIONAL WEATHER SERVICE GOODLAND KS
300 PM CDT SUN MAR 26 2017

NOTE:  "FAIR" INDICATES FEW OR NO CLOUDS BELOW 12,000 FEET WITH NO
SIGNIFICANT WEATHER AND/OR OBSTRUCTIONS TO VISIBILITY.

KSZ001>006-013>018-027>032-041>047-262100-
NORTHWEST KANSAS

CITY           SKY/WX    TMP DP  RH WIND       PRES   REMARKS
GOODLAND       LGT RAIN  46  41  82 NE13      29.86S
HAYS             N/A     49  41  74 NE21      29.82F
HILL CITY      CLOUDY    47  42  83 E12       29.87F
RUSSELL        CLOUDY    47  41  80 NE14      29.84F
$$

KSZ061>065-074>080-084>089-262100-
SOUTHWEST KANSAS

CITY           SKY/WX    TMP DP  RH WIND       PRES   REMARKS
DODGE CITY     CLOUDY    49  42  77 NE10      29.79F
ELKHART          N/A     46  33  60 N14         N/A
GARDEN CITY    FOG       42  41  96 E14       29.81R VSB 1/4
GREAT BEND     CLOUDY    51  43  74 NE20      29.78F
LIBERAL        CLOUDY    55  43  62 N21G29    29.75R
$$

KSZ066>073-081>083-090>101-262100-
SOUTHEAST KANSAS

CITY           SKY/WX    TMP DP  RH WIND       PRES   REMARKS
CHANUTE        MOSUNNY   60  48  64 VRB6      29.87F
COFFEYVILLE    MOSUNNY   67  49  52 SE8       29.86F
HUTCHINSON     CLOUDY    53  46  77 NE14      29.80F
MEDICINE LODGE   N/A     60  46  59 E15G21    29.74F
NEWTON         CLOUDY    52  48  86 NE12G18   29.83F
PARSONS        MOSUNNY   64  48  56 VRB5      29.86F
WICHITA INTL   CLOUDY    59  48  67 E18G24    29.77F
WICHITA JABRA  CLOUDY    59  48  67 E14       29.80F
WINFIELD       PTSUNNY   66  45  46 E14       29.78F
$$

KSZ007>012-019>026-033>040-048>060-102>105-262100-
NORTHEAST KANSAS

CITY           SKY/WX    TMP DP  RH WIND       PRES   REMARKS
CONCORDIA      CLOUDY    49  44  83 E6        29.89F
EMPORIA        CLOUDY    52  47  83 E9        29.87F
LAWRENCE       CLOUDY    51  44  77 NW3       29.91F
MANHATTAN      CLOUDY    51  44  77 E3        29.90F
OLATHE IND     CLOUDY    51  44  77 W6        29.91F
OLATHE EXE     CLOUDY    51  45  79 W6        29.90F
SALINA         CLOUDY    53  44  71 E10       29.87F
TOPEKA BILLARD CLOUDY    52  45  77 W6        29.91F
TOPEKA FORBES  CLOUDY    52  44  74 CALM      29.91F
$$




USA.gov is the U.S. government's official web portal to all federal, state and local government web resources and services.